Location: Bli��� Lhota
(48.7570°N, 14.0120°E)
Time: 06:29:48
(UTC+00:00)

SWAS - Pass Details

Date: 18 September 2020
Orbit: 581 x 590 km, 69.9° (Epoch: 27 October)

Event Time Altitude Azimuth Distance (km) Brightness Sun altitude
Rises 19:32:17 0° 328° (NNW) 2,829 9.0 -23.1°
Reaches altitude 10° 19:34:32 10° 327° (NNW) 1,922 8.0 -23.4°
Maximum altitude 19:38:49 72° 243° (WSW) 621 4.5 -24.0°
Enters shadow 19:38:54 72° 232° (SW) 621 4.5 -24.0°
